Regional Weather Roundup
Issued by NWS

Home | Current Version | Previous Version | Text Only | Print | Product List | Glossary On
Versions: 1 2 3 4 5 6 7 8 9 10 11 12 13 14 15 16 17 18 19 20 21 22 23 24 25 26 27 28 29 30 31 32 33 34 35 36 37 38 39 40 41 42 43 44 45 46 47 48 49 50
000
ASUS43 KBIS 060501
RWRND

NORTH DAKOTA REGIONAL WEATHER ROUNDUP
NATIONAL WEATHER SERVICE BISMARCK ND
1100 PM CST THU MAR 05 2015

NOTE: "FAIR" INDICATES FEW OR NO CLOUDS BELOW 12,000 FEET WITH NO
SIGNIFICANT WEATHER AND/OR OBSTRUCTIONS TO VISIBILITY.


NDZ001>003-009>011-017-060600-
NORTHWEST NORTH DAKOTA

CITY           SKY/WX    TMP DP  RH WIND       PRES   REMARKS
WILLISTON      PTCLDY    31  20  63 NW9       30.03R
MINOT          CLEAR     29  15  56 W16       29.97R WCI  17
MINOT AFB      CLEAR     22  17  79 W14       29.97R WCI   9
$$

NDZ018>021-031>035-040>046-060600-
SOUTHWEST NORTH DAKOTA

CITY           SKY/WX    TMP DP  RH WIND       PRES   REMARKS
BISMARCK       MOCLDY    23  12  62 W3        30.04F
DICKINSON      MOCLDY    27  14  58 W9        30.00F WCI  18
GARRISON         N/A     19  11  70 W7        29.98F WCI  10
HETTINGER ARPT MOCLDY    23  12  62 CALM      30.07F
$$

NDZ004>008-012>016-024-026-027-054-060600-
NORTHEAST NORTH DAKOTA

CITY           SKY/WX    TMP DP  RH WIND       PRES   REMARKS
GRAND FORKS    CLOUDY    19  11  70 S16       29.98F WCI   4
GRND FRKS AFB  CLOUDY    19  10  68 SW10      29.97F WCI   7
DEVILS LAKE    PTCLDY    19  10  68 W10       29.94F WCI   8
$$

NDZ022-023-025-028>030-036>039-047>053-060600-
SOUTHEAST NORTH DAKOTA

CITY           SKY/WX    TMP DP  RH WIND       PRES   REMARKS
FARGO          FAIR      17   7  64 S14       30.07F WCI   3
JAMESTOWN      PTCLDY    18  10  71 SW9       29.99F WCI   7
$$



USA.gov is the U.S. government's official web portal to all federal, state and local government web resources and services.